Date,TemperatureHighF,TemperatureAvgF,TemperatureLowF,DewpointHighF,DewpointAvgF,DewpointLowF,HumidityHigh,HumidityAvg,HumidityLow,PressureMaxIn,PressureMinIn,WindSpeedMaxMPH,WindSpeedAvgMPH,GustSpeedMaxMPH,PrecipitationSumIn
2013-9-1,98.0,86.8,77.6,54.9,51.8,48.7,43,31,21,29.74,29.59,10,3,16,0.00
2013-9-2,98.2,88.3,78.8,57.8,51.4,45.6,46,30,17,29.73,29.59,10,3,15,0.00
2013-9-3,98.2,91.1,79.4,57.2,50.4,46.7,44,26,19,29.73,29.62,8,2,13,0.00
2013-9-4,101.2,88.7,74.6,56.4,49.0,40.7,46,27,13,29.79,29.64,7,1,11,0.00
2013-9-5,98.0,90.8,79.4,52.5,50.0,48.0,37,25,20,29.75,29.71,2,0,4,0.00
2013-9-6,101.5,90.4,78.5,48.0,43.7,40.0,30,21,14,29.73,29.57,7,2,13,0.00
2013-9-7,100.7,87.9,76.8,53.8,42.8,32.0,35,22,10,29.73,29.58,7,1,10,0.00
2013-9-8,97.5,83.0,69.6,59.5,50.0,34.9,57,33,19,29.72,29.54,6,1,21,0.03
2013-9-9,95.4,83.1,70.4,59.2,50.4,38.8,66,36,18,29.68,29.51,9,1,12,0.00
2013-9-10,92.5,82.2,72.1,51.4,43.8,38.4,47,27,18,29.69,29.52,8,1,11,0.00
2013-9-11,92.5,81.6,70.8,47.2,41.7,39.1,34,25,17,29.76,29.65,6,0,7,0.00
2013-9-12,95.6,83.1,71.1,49.0,42.0,36.9,35,24,13,29.76,29.61,7,1,12,0.00
2013-9-13,96.3,83.6,69.4,49.4,45.5,42.1,44,28,16,29.66,29.49,6,1,11,0.00
2013-9-14,99.9,87.2,71.8,51.9,44.2,36.7,43,24,12,29.59,29.45,6,1,11,0.00
2013-9-15,99.4,87.6,73.9,49.4,41.4,34.2,38,22,11,29.60,29.51,9,2,18,0.00
2013-9-16,97.1,85.4,72.0,45.4,38.6,34.2,35,20,12,29.66,29.52,8,2,15,0.00
2013-9-17,92.9,80.5,73.2,41.4,34.3,15.9,30,20,6,29.58,29.44,15,4,24,0.00
2013-9-18,90.3,77.3,64.8,44.4,35.2,26.8,42,23,12,29.63,29.50,11,1,17,0.00
2013-9-19,92.5,79.3,66.6,37.6,27.1,22.6,26,15,9,29.72,29.59,2,0,7,0.00
2013-9-20,94.0,79.2,62.6,38.6,29.7,21.1,29,17,8,29.65,29.52,7,2,14,0.00
2013-9-21,84.5,72.9,63.1,41.6,38.7,29.7,44,30,14,29.59,29.49,20,6,34,0.00
2013-9-22,79.9,67.3,57.2,39.9,32.0,23.3,43,29,13,29.75,29.54,14,4,21,0.00
2013-9-23,88.4,72.3,56.0,43.1,34.1,29.1,54,27,13,29.85,29.74,2,0,6,0.00
2013-9-24,92.9,77.9,61.5,38.1,28.7,11.7,38,19,5,29.77,29.57,16,5,22,0.00
2013-9-25,80.1,70.2,59.0,43.4,32.6,14.9,47,27,9,29.57,29.35,22,13,29,0.00
2013-9-26,59.0,56.6,54.1,33.3,27.8,24.4,38,33,30,29.57,29.45,15,5,22,0.00